When you browse on this site, cookies collect data to enhance your experience and personalize the content and advertising you see.
Visit our Privacy Policy to learn more. By continuing to use the site, you agree to this use of cookies and data.
  • en Suisse
  • Liste des pays
  • À 7 jours
  • Température de l'eau
  • Carte satellitaire
  • Carte météo
  • Widgets météo
  • user-avatar
    Se connecter

    Météo par heure à Maslovo-Nikolskoe

    Ce jour, 22 Juillet, Lundi

    Heure Température Précipitation Vent Pression Humidité
    00:00 +16°C° 0 mm 2 m/s 746 mmHg 91%
    01:00 +16°C° 0 mm 1 m/s 746 mmHg 91%
    02:00 +15°C° 0 mm 1 m/s 746 mmHg 91%
    03:00 +15°C° 0 mm 1 m/s 746 mmHg 91%
    04:00 +15°C° 0 mm 1 m/s 746 mmHg 90%
    05:00 +16°C° 0 mm 1 m/s 747 mmHg 89%
    06:00 +16°C° 0 mm 1 m/s 747 mmHg 88%
    07:00 +19°C° 0 mm 1 m/s 747 mmHg 83%
    08:00 +20°C° 0 mm 1 m/s 746 mmHg 77%
    09:00 +22°C° 0 mm 1 m/s 746 mmHg 71%
    10:00 +23°C° 0 mm 1 m/s 746 mmHg 66%
    11:00 +24°C° 0 mm 1 m/s 746 mmHg 61%
    12:00 +25°C° 0 mm 2 m/s 746 mmHg 56%
    13:00 +25°C° 0.1 mm 2 m/s 746 mmHg 55%
    14:00 +26°C° 0.1 mm 2 m/s 746 mmHg 54%
    15:00 +26°C° 0.1 mm 2 m/s 745 mmHg 53%
    16:00 +26°C° 0 mm 2 m/s 745 mmHg 56%
    17:00 +26°C° 0 mm 1 m/s 745 mmHg 59%
    18:00 +26°C° 0 mm 1 m/s 745 mmHg 62%
    19:00 +24°C° 0 mm 1 m/s 745 mmHg 66%
    20:00 +22°C° 0 mm 1 m/s 744 mmHg 69%
    21:00 +19°C° 0 mm 0 m/s 744 mmHg 72%
    22:00 +20°C° 0 mm 1 m/s 744 mmHg 74%
    23:00 +20°C° 0 mm 1 m/s 744 mmHg 76%

    Demain, 23 Juillet, Mardi

    Heure Température Précipitation Vent Pression Humidité
    00:00 +18°C° 0 mm 2 m/s 744 mmHg 78%
    01:00 +18°C° 0.2 mm 2 m/s 744 mmHg 82%
    02:00 +19°C° 0.2 mm 1 m/s 743 mmHg 86%
    03:00 +19°C° 0.2 mm 1 m/s 743 mmHg 91%
    04:00 +19°C° 0.6 mm 1 m/s 743 mmHg 92%
    05:00 +18°C° 0.6 mm 2 m/s 743 mmHg 93%
    06:00 +17°C° 0.6 mm 2 m/s 742 mmHg 94%
    07:00 +18°C° 0.2 mm 3 m/s 742 mmHg 93%
    08:00 +18°C° 0.2 mm 4 m/s 742 mmHg 91%
    09:00 +18°C° 0.2 mm 4 m/s 742 mmHg 89%
    10:00 +20°C° 0.1 mm 4 m/s 742 mmHg 85%
    11:00 +21°C° 0.1 mm 5 m/s 742 mmHg 81%
    12:00 +22°C° 0.1 mm 5 m/s 742 mmHg 76%
    13:00 +22°C° 0.8 mm 5 m/s 742 mmHg 76%
    14:00 +23°C° 0.8 mm 5 m/s 742 mmHg 76%
    15:00 +23°C° 0.8 mm 5 m/s 741 mmHg 76%
    16:00 +23°C° 0.7 mm 4 m/s 741 mmHg 78%
    17:00 +24°C° 0.7 mm 3 m/s 742 mmHg 79%
    18:00 +24°C° 0.7 mm 2 m/s 742 mmHg 80%
    19:00 +23°C° 0.7 mm 2 m/s 741 mmHg 84%
    20:00 +20°C° 0.7 mm 2 m/s 741 mmHg 88%
    21:00 +19°C° 0.7 mm 2 m/s 741 mmHg 92%
    22:00 +19°C° 0 mm 2 m/s 741 mmHg 93%
    23:00 +18°C° 0 mm 2 m/s 741 mmHg 93%

    Après-demain, 24 Juillet, Mercredi

    Heure Température Précipitation Vent Pression Humidité
    00:00 +19°C° 0 mm 1 m/s 741 mmHg 93%
    01:00 +19°C° 0 mm 1 m/s 741 mmHg 93%
    02:00 +18°C° 0 mm 1 m/s 741 mmHg 94%
    03:00 +18°C° 0 mm 1 m/s 741 mmHg 94%
    04:00 +18°C° 0 mm 1 m/s 741 mmHg 93%
    05:00 +19°C° 0 mm 1 m/s 741 mmHg 93%
    06:00 +19°C° 0 mm 1 m/s 741 mmHg 92%
    07:00 +19°C° 0.2 mm 1 m/s 741 mmHg 93%
    08:00 +19°C° 0.2 mm 1 m/s 741 mmHg 93%
    09:00 +19°C° 0.2 mm 1 m/s 741 mmHg 94%
    10:00 +19°C° 0.5 mm 2 m/s 741 mmHg 88%
    11:00 +21°C° 0.5 mm 2 m/s 741 mmHg 83%
    12:00 +22°C° 0.5 mm 3 m/s 742 mmHg 77%
    13:00 +23°C° 1 mm 2 m/s 742 mmHg 80%
    14:00 +21°C° 1 mm 2 m/s 741 mmHg 84%
    15:00 +21°C° 1 mm 1 m/s 741 mmHg 87%
    16:00 +21°C° 0.2 mm 1 m/s 742 mmHg 87%
    17:00 +20°C° 0.2 mm 2 m/s 742 mmHg 88%
    18:00 +20°C° 0.2 mm 3 m/s 742 mmHg 89%
    19:00 +19°C° 0.3 mm 2 m/s 742 mmHg 89%
    20:00 +20°C° 0.3 mm 1 m/s 742 mmHg 89%
    21:00 +20°C° 0.3 mm 1 m/s 742 mmHg 90%
    22:00 +18°C° 0.2 mm 2 m/s 742 mmHg 90%
    23:00 +18°C° 0.2 mm 3 m/s 742 mmHg 91%

    25 Juillet, Jeudi

    Heure Température Précipitation Vent Pression Humidité
    00:00 +18°C° 0.2 mm 4 m/s 743 mmHg 92%
    01:00 +18°C° 0 mm 4 m/s 743 mmHg 91%
    02:00 +18°C° 0 mm 4 m/s 743 mmHg 91%
    03:00 +18°C° 0 mm 4 m/s 743 mmHg 90%
    04:00 +18°C° 0 mm 4 m/s 743 mmHg 91%
    05:00 +18°C° 0 mm 3 m/s 743 mmHg 91%
    06:00 +18°C° 0 mm 2 m/s 743 mmHg 91%
    07:00 +18°C° 0 mm 3 m/s 744 mmHg 90%
    08:00 +19°C° 0 mm 3 m/s 744 mmHg 88%
    09:00 +19°C° 0 mm 3 m/s 744 mmHg 86%
    10:00 +21°C° 0 mm 3 m/s 745 mmHg 81%
    11:00 +23°C° 0 mm 2 m/s 745 mmHg 75%
    12:00 +25°C° 0 mm 2 m/s 745 mmHg 70%
    13:00 +25°C° 0.5 mm 2 m/s 745 mmHg 68%
    14:00 +26°C° 0.5 mm 3 m/s 745 mmHg 67%
    15:00 +27°C° 0.5 mm 3 m/s 745 mmHg 65%
    16:00 +26°C° 0.9 mm 3 m/s 745 mmHg 69%
    17:00 +25°C° 0.9 mm 3 m/s 745 mmHg 73%
    18:00 +25°C° 0.9 mm 3 m/s 745 mmHg 77%
    19:00 +24°C° 0.2 mm 3 m/s 745 mmHg 79%
    20:00 +21°C° 0.2 mm 3 m/s 745 mmHg 82%
    21:00 +20°C° 0.2 mm 2 m/s 745 mmHg 84%
    22:00 +19°C° 0.1 mm 2 m/s 745 mmHg 86%
    23:00 +19°C° 0.1 mm 2 m/s 745 mmHg 88%

    26 Juillet, Vendredi

    Heure Température Précipitation Vent Pression Humidité
    00:00 +18°C° 0.1 mm 2 m/s 745 mmHg 90%
    01:00 +18°C° 0 mm 2 m/s 745 mmHg 91%
    02:00 +18°C° 0 mm 2 m/s 745 mmHg 92%
    03:00 +18°C° 0 mm 1 m/s 745 mmHg 94%
    04:00 +17°C° 0 mm 2 m/s 745 mmHg 94%
    05:00 +17°C° 0 mm 2 m/s 745 mmHg 94%
    06:00 +18°C° 0 mm 3 m/s 745 mmHg 95%
    07:00 +19°C° 0 mm 4 m/s 745 mmHg 90%
    08:00 +20°C° 0 mm 4 m/s 745 mmHg 85%
    09:00 +22°C° 0 mm 5 m/s 745 mmHg 80%
    10:00 +23°C° 0 mm 5 m/s 744 mmHg 74%
    11:00 +23°C° 0 mm 6 m/s 744 mmHg 68%
    12:00 +24°C° 0 mm 6 m/s 744 mmHg 62%
    13:00 +26°C° 0 mm 6 m/s 744 mmHg 62%
    14:00 +26°C° 0 mm 6 m/s 744 mmHg 62%
    15:00 +26°C° 0 mm 6 m/s 743 mmHg 62%
    16:00 +25°C° 0.2 mm 5 m/s 743 mmHg 65%
    17:00 +25°C° 0.2 mm 5 m/s 743 mmHg 68%
    18:00 +23°C° 0.2 mm 4 m/s 743 mmHg 71%
    19:00 +21°C° 0 mm 4 m/s 743 mmHg 74%
    20:00 +20°C° 0 mm 4 m/s 743 mmHg 77%
    21:00 +19°C° 0 mm 4 m/s 743 mmHg 80%
    22:00 +18°C° 0 mm 4 m/s 743 mmHg 80%
    23:00 +17°C° 0 mm 4 m/s 743 mmHg 81%

    27 Juillet, Samedi

    Heure Température Précipitation Vent Pression Humidité
    00:00 +15°C° 0 mm 4 m/s 743 mmHg 82%
    01:00 +15°C° 0 mm 4 m/s 743 mmHg 85%
    02:00 +14°C° 0 mm 4 m/s 742 mmHg 89%
    03:00 +14°C° 0 mm 4 m/s 742 mmHg 92%
    04:00 +14°C° 0 mm 4 m/s 742 mmHg 93%
    05:00 +14°C° 0 mm 5 m/s 742 mmHg 93%
    06:00 +14°C° 0 mm 5 m/s 742 mmHg 94%
    07:00 +15°C° 0 mm 5 m/s 742 mmHg 88%
    08:00 +16°C° 0 mm 5 m/s 742 mmHg 81%
    09:00 +17°C° 0 mm 5 m/s 742 mmHg 75%
    10:00 +19°C° 0 mm 6 m/s 742 mmHg 71%
    11:00 +20°C° 0 mm 6 m/s 742 mmHg 68%
    12:00 +21°C° 0 mm 6 m/s 742 mmHg 64%
    13:00 +21°C° 0 mm 6 m/s 742 mmHg 63%
    14:00 +21°C° 0 mm 6 m/s 741 mmHg 63%
    15:00 +22°C° 0 mm 6 m/s 741 mmHg 62%
    16:00 +22°C° 0 mm 5 m/s 741 mmHg 63%
    17:00 +21°C° 0 mm 5 m/s 741 mmHg 65%
    18:00 +21°C° 0 mm 4 m/s 740 mmHg 66%
    19:00 +20°C° 0 mm 4 m/s 740 mmHg 71%
    20:00 +19°C° 0 mm 3 m/s 740 mmHg 75%
    21:00 +17°C° 0 mm 3 m/s 740 mmHg 79%
    22:00 +17°C° 0 mm 3 m/s 740 mmHg 79%
    23:00 +16°C° 0 mm 2 m/s 739 mmHg 79%
    Voir plus